420  
ASUS41 KPHI 300610  
RWRPHI  
 
REGIONAL WEATHER ROUNDUP  
NATIONAL WEATHER SERVICE MOUNT HOLLY NJ  
200 AM EDT SAT AUG 30 2014  
 
NOTE: "FAIR" INDICATES FEW OR NO CLOUDS BELOW 12,000 FEET WITH NO  
SIGNIFICANT WEATHER AND/OR S TO VISIBILITY
.  
 
* = STATION DOES NOT REPORT PRECIPITATION (E.G. RAIN, SNOW, ETC.)  
OR FOG.
 
 
NJZ015>026-300700-  
SOUTHERN NEW JERSEY  
 
CITY SKY/WX TMP DP RH WIND PRES REMARKS
 
POMONA FAIR 56 54 93 CALM 30.24F  
6HR MIN TEMP: 55; 6HR MAX TEMP: 67;  
 
RIO GRANDE* FAIR 59 55 88 CALM 30.25S  
MILLVILLE FAIR 55 54 96 CALM 30.24S  
WRIGHTSTOWN FAIR 56 55 99 NE2 30.23F  
MOUNT HOLLY FAIR 56 54 93 CALM 30.25S  
TRENTON FAIR 59 54 83 CALM 30.25S  
6HR MIN TEMP: 59; 6HR MAX TEMP: 69;  
 

 
NJZ001>014-300700-  
NORTHERN NEW JERSEY  
 
CITY SKY/WX TMP DP RH WIND PRES REMARKS
 
SUSSEX FAIR 56 52 86 CALM 30.26F  
ANDOVER* N/A 54 53 97 CALM 30.26F  
MORRISTOWN FAIR 54 50 87 CALM 30.26S FOG  
NEWARK FAIR 67 55 65 CALM 30.26S  
TETERBORO FAIR 64 54 69 CALM 30.25S  
CALDWELL FAIR 57 53 86 CALM 30.27S  
SOMERVILLE FAIR 56 53 90 CALM 30.24S  
ALLAIRE* FAIR 59 50 72 CALM 30.25F  
TOMS RIVER* FAIR 52 46 82 CALM 30.26S  
 

 
PAZ043-044-047-054-055-060>062-066>071-300700-  
EASTERN PENNSYLVANIA  
 
CITY SKY/WX TMP DP RH WIND PRES REMARKS
 
PHILADELPHIA FAIR 65 58 78 CALM 30.25S  
6HR MIN TEMP: 65; 6HR MAX TEMP: 73;  
 
NORTH PHILA FAIR 62 55 77 CALM 30.26S  
BLUE BELL FAIR 55 54 94 CALM 30.24S  
DOYLESTOWN FAIR 58 56 93 CALM 30.25S  
QUAKERTOWN* FAIR 55 55 100 CALM 30.26S  
POTTSTOWN FAIR 58 56 93 CALM 30.26F  
LANCASTER FAIR 58 54 86 NE3 30.24S  
COATESVILLE FAIR 57 57 100 CALM 30.25F  
READING FAIR 62 57 83 CALM 30.23S  
6HR MIN TEMP: 61; 6HR MAX TEMP: 73;  
 
ALLENTOWN FAIR 60 55 83 CALM 30.24F  
6HR MIN TEMP: 60; 6HR MAX TEMP: 74;  
 
MOUNT POCONO CLOUDY 60 52 74 S6 30.27F  
6HR MIN TEMP: 53; 6HR MAX TEMP: 63;  
 
HAZLETON FAIR 59 55 88 SE7 30.28S  
WILKES BARRE FAIR 63 57 81 VRB6 30.24R  
 

 
DEZALL-MDZ008-012-015-019-020-300700-  
DELAWARE AND EASTERN MARYLAND  
 
CITY SKY/WX TMP DP RH WIND PRES REMARKS
 
WILMINGTON FAIR 66 59 78 SE5 30.25S  
6HR MIN TEMP: 66; 6HR MAX TEMP: 73;  
 
DOVER FAIR 64 61 90 SW1 30.22S  
GEORGETOWN FAIR 62 59 90 MISG 30.24S  
6HR MIN TEMP: 62; 6HR MAX TEMP: 68;  
 
EASTON CLOUDY 65 65 100 CALM 30.27S  
PATUXENT CLOUDY 71 59 65 SE7 30.22F  
OCEAN CITY FAIR 70 61 73 SE3 30.22F  
WALLOPS ISLAND FAIR 64 59 83 CALM 30.23F  
CAMBRIDGE FAIR 63 59 88 CALM 30.23S  
SALISBURY FAIR 61 56 83 CALM 30.23F  
 

 
PAZ001-021-NYZ056-072-MDZ011-DCZ001-300700-  
OTHER NEARBY LOCATIONS  
 
CITY SKY/WX TMP DP RH WIND PRES REMARKS
 
HARRISBURG FAIR 65 56 72 S6 30.22S  
STATE COLLEGE FAIR 59 53 79 W3 30.21R  
WILLIAMSPORT FAIR 58 53 84 CALM 30.20R  
BINGHAMTON FAIR 59 52 77 S7 30.22S  
NEW YORK CITY FAIR 66 54 65 CALM 30.29S  
BALTIMORE MOCLDY 68 61 78 CALM 30.23S  
WASHINGTON DC MOCLDY 71 61 70 S6 30.23S  
 

 
 
CLICK HERE TO GO TO PREVIOUS BULLETINS.

The Nexlab PA Page
The Nexlab NJ Page
The Nexlab DE Page
The Nexlab MD Page Main Text Page